| time (UTC) | temp C | wind direction | speed KPH | gust KPH | rain 1hr cm | rain 24hr cm | rain mn cm | humidity % | barometer mb |
| 20260507013724 | 28 | 59 | 9.7 | 0.0 | 0.00 | 0.00 | 0.00 | 84 | 1012.0 |
| 20260507010723 | 28 | 96 | 9.7 | 0.0 | 0.00 | 0.00 | 0.00 | 92 | 1012.0 |
| 20260507003723 | 28 | 96 | 9.7 | 0.0 | 0.00 | 0.00 | 0.00 | 88 | 1012.0 |
| 20260507000723 | 27 | 122 | 8.0 | 0.0 | 0.00 | 0.00 | 0.00 | 92 | 1011.0 |
| 20260506233724 | 27 | 122 | 8.0 | 0.0 | 0.00 | 0.00 | 0.00 | 92 | 1011.0 |
| 20260506230723 | 26 | 113 | 6.4 | 0.0 | 0.00 | 0.00 | 0.00 | 88 | 1011.0 |
| 20260506223723 | 27 | 113 | 6.4 | 0.0 | 0.00 | 0.00 | 0.00 | 92 | 1011.0 |
| 20260506220723 | 26 | 105 | 4.8 | 0.0 | 0.00 | 0.00 | 0.00 | 89 | 1010.0 |
| 20260506213723 | 27 | 105 | 4.8 | 0.0 | 0.00 | 0.00 | 0.00 | 92 | 1010.0 |
| 20260506210723 | 26 | 155 | 4.8 | 0.0 | 0.00 | 0.00 | 0.00 | 89 | 1010.0 |
| 20260506203724 | 27 | 155 | 4.8 | 0.0 | 0.00 | 0.00 | 0.00 | 92 | 1010.0 |
| 20260506200724 | 26 | 171 | 6.4 | 0.0 | 0.00 | 0.00 | 0.00 | 88 | 1010.0 |
| 20260506193723 | 27 | 171 | 6.4 | 0.0 | 0.00 | 0.00 | 0.00 | 92 | 1010.0 |
| 20260506190723 | 27 | 158 | 6.4 | 0.0 | 0.00 | 0.00 | 0.00 | 90 | 1010.0 |
| 20260506183723 | 27 | 158 | 6.4 | 0.0 | 0.00 | 0.00 | 0.00 | 93 | 1010.0 |
| 20260506180724 | 27 | 126 | 6.4 | 0.0 | 0.00 | 0.00 | 0.00 | 92 | 1011.0 |
| 20260506173723 | 27 | 128 | 6.4 | 0.0 | 0.00 | 0.00 | 0.00 | 92 | 1011.0 |
| 20260506170723 | 27 | 128 | 8.0 | 0.0 | 0.00 | 0.00 | 0.00 | 87 | 1012.0 |
| 20260506163723 | 27 | 128 | 8.0 | 0.0 | 0.00 | 0.00 | 0.00 | 91 | 1012.0 |
| 20260506160723 | 26 | 127 | 6.4 | 0.0 | 0.00 | 0.00 | 0.00 | 88 | 1012.0 |
| 20260506153724 | 27 | 127 | 6.4 | 0.0 | 0.00 | 0.00 | 0.00 | 92 | 1012.0 |
| 20260506150723 | 27 | 124 | 4.8 | 0.0 | 0.00 | 0.00 | 0.00 | 92 | 1012.0 |
| 20260506143723 | 27 | 124 | 4.8 | 0.0 | 0.00 | 0.00 | 0.00 | 94 | 1012.0 |
| 20260506140728 | 28 | 137 | 4.8 | 0.0 | 0.00 | 0.00 | 0.00 | 94 | 1012.0 |
| 20260506133723 | 28 | 137 | 4.8 | 0.0 | 0.00 | 0.00 | 0.00 | 95 | 1012.0 |
| 20260506130723 | 30 | 103 | 3.2 | 0.0 | 0.00 | 0.00 | 0.00 | 91 | 1012.0 |
| 20260506123723 | 30 | 103 | 3.2 | 0.0 | 0.00 | 0.00 | 0.00 | 91 | 1012.0 |
| 20260506120723 | 28 | 67 | 1.6 | 0.0 | 0.00 | 0.00 | 0.00 | 89 | 1011.0 |
| 20260506113723 | 28 | 38 | 1.6 | 0.0 | 0.00 | 0.00 | 0.00 | 89 | 1011.0 |
| 20260506110724 | 27 | 358 | 3.2 | 0.0 | 0.00 | 0.00 | 0.00 | 86 | 1010.0 |
| 20260506103724 | 27 | 358 | 3.2 | 0.0 | 0.00 | 0.00 | 0.00 | 88 | 1010.0 |
| 20260506100723 | 27 | 358 | 6.4 | 0.0 | 0.00 | 0.00 | 0.00 | 83 | 1009.0 |
| 20260506093723 | 28 | 358 | 6.4 | 0.0 | 0.00 | 0.00 | 0.00 | 87 | 1009.0 |
| 20260506090723 | 28 | 358 | 9.7 | 0.0 | 0.00 | 0.00 | 0.00 | 82 | 1008.0 |
| 20260506083723 | 28 | 358 | 9.7 | 0.0 | 0.00 | 0.00 | 0.00 | 80 | 1008.0 |
| 20260506080723 | 28 | 350 | 12.9 | 0.0 | 0.00 | 0.00 | 0.00 | 81 | 1008.0 |
| 20260506060723 | 29 | 348 | 16.1 | 0.0 | 0.00 | 0.00 | 0.00 | 79 | 1008.0 |
| 20260506050723 | 29 | 344 | 16.1 | 0.0 | 0.00 | 0.00 | 0.00 | 81 | 1009.0 |
| 20260506043723 | 29 | 344 | 16.1 | 0.0 | 0.00 | 0.00 | 0.00 | 76 | 1009.0 |
| 20260506040723 | 28 | 354 | 14.5 | 0.0 | 0.00 | 0.00 | 0.00 | 87 | 1010.0 |
| 20260506033723 | 29 | 354 | 14.5 | 0.0 | 0.00 | 0.00 | 0.00 | 75 | 1010.0 |
| 20260506030723 | 29 | 16 | 9.7 | 0.0 | 0.00 | 0.00 | 0.00 | 89 | 1011.0 |
| 20260506023723 | 29 | 16 | 9.7 | 0.0 | 0.00 | 0.00 | 0.00 | 82 | 1011.0 |
| 20260506020723 | 29 | 43 | 8.0 | 0.0 | 0.00 | 0.00 | 0.00 | 92 | 1012.0 |